Flight Information

DEPARTURE
ASPEN, CO
Elevation:
7837
Runways:
15/33 - 8006x100 - ASPH-G
ATIS:
120.4
Clearance Delivery:
123.75
Ground:
121.9
Tower:
ASPEN TOWER 118.85
DESTINATION
,
Elevation:
TPA:
1000 (est.)


6179.2 NM79° True-12° Var66° HDG

Flight Plan:
(click to file on line)

1. Type
2. Aircraft Identification
3. Aircraft Type / Special Equipment
4. True Airspeed
kts
5. Departure Airport
(ICAO code)
6. Arriving Airport
(ICAO code)
7. Cruising Altitude
ft
8. Alternate Airport
(ICAO code)
9. Route of Flight
10. Remarks


00:00:00 Departure ATIS: Destination ATIS:

Clearance Limit:
Route:
Altitude: Expect in minutes
Frequency:
Transponder: (7500 Hijack / 7600 Lost Comms / 7700 Emergency)


KASE 030753Z AUTO 13003KT 10SM FEW090 05/04 A3035 RMK AO2 SLP200 T00500044
Time: 2022-10-03T07:53:00Z
1664786719
Winds: 130 @ 3 kts
Visibility: 10.0 sm
Clouds (AGL): FEW 9000
Temperature: 5.0 C
Dew Point: 4.4 C
Pressure: 30.351377 in Hgbr


Notes:

Data extracted from FAA Digital Chart Supplement. Effective: 0901Z Thursday, 27 JAN 2022 to 0900z Thursday, 24 MAR 2022
Current ATIS data is provided courtisy of PilotEdge.